Corpus Christi, TX

4:35 PM CST on February 24, 2017 (GMT -0600)
Corpus Christi International

Weather History for KCRP - February, 2013

Change the Weather History Date:

Monday, February 4, 2013

  Actual Average Record
Temperature  
Mean Temperature 72 °F 59 °F  
Max Temperature 83 °F 69 °F 88 °F (1954)
Min Temperature 61 °F 49 °F 25 °F (1912)
Degree Days  
Heating Degree Days 0 8  
Month to date heating degree days 4 32  
Since 1 July heating degree days 387 659  
Cooling Degree Days 7 1  
Month to date cooling degree days 9 4  
Year to date cooling degree days 76 34  
Growing Degree Days 22 (Base 50)    
Moisture  
Dew Point 61 °F    
Average Humidity 69    
Maximum Humidity 87    
Minimum Humidity 51    
Precipitation  
Precipitation T in 0.05 in 1.85 in (1965)
Month to date precipitation T 0.22  
Year to date precipitation 1.25 1.76  
Snow  
Snow 0.00 in - - ()
Month to date snowfall 0.0  
Since 1 July snowfall 0.0  
Snow Depth 0.00 in    
Sea Level Pressure  
Sea Level Pressure 29.89 in    
Wind  
Wind Speed 13 mph (SSE)    
Max Wind Speed 26 mph    
Max Gust Speed 31 mph    
Visibility 10 miles    
Events      
T = Trace of Precipitation, MM = Missing Value Source: NWS Daily Summary

Daily Weather History Graph

Daily Weather History Graph

Search for Another Location

Airport or City:

Trip Planner

Search our weather history database for the weather conditions in past years. The results will help you decide how hot, cold, wet, or windy it might be!

Date:

Astronomy

Feb. 04, 2013 Rise Set
Actual Time 7:14 AM CST 6:13 PM CST
Civil Twilight 6:50 AM CST 6:37 PM CST
Nautical Twilight 6:22 AM CST 7:05 PM CST
Astronomical Twilight 5:55 AM CST 7:33 PM CST
Moon 1:46 AM CST (2/4) 12:45 PM CST (2/4)
Length of Visible Light 11h 47m
Length of Day
10h 58m
Last Quarter, 37% of the Moon is Illuminated
Feb 4
Last Quarter
Feb 10
New
Feb 17
First Quarter
Feb 25
Full
Mar 4
Last Quarter

Hourly Weather History & Observations

Time (CST) Temp. Heat Index Dew Point Humidity Pressure Visibility Wind Dir Wind Speed Gust Speed Precip Events Conditions
12:51 AM 63.0 °F - 57.0 °F 81% 30.02 in 10.0 mi SSE 5.8 mph - N/A   Partly Cloudy
1:51 AM 62.1 °F - 55.9 °F 80% 29.98 in 10.0 mi SE 8.1 mph - N/A   Partly Cloudy
2:51 AM 62.1 °F - 55.9 °F 80% 29.96 in 10.0 mi SE 8.1 mph - N/A   Clear
4:51 AM 62.6 °F - 57.2 °F 82% 29.97 in 10.0 mi SE 4.6 mph - N/A   Mostly Cloudy
5:51 AM 63.0 °F - 57.9 °F 84% 29.94 in 10.0 mi SE 8.1 mph - N/A   Mostly Cloudy
6:51 AM 66.0 °F - 59.0 °F 78% 29.94 in 10.0 mi SE 9.2 mph - N/A   Overcast
7:51 AM 66.9 °F - 60.1 °F 79% 29.95 in 10.0 mi SSE 8.1 mph - N/A   Overcast
8:51 AM 69.1 °F - 61.0 °F 75% 29.95 in 10.0 mi South 12.7 mph - N/A   Overcast
9:51 AM 71.1 °F - 62.1 °F 73% 29.93 in 10.0 mi SSE 16.1 mph - 0.00 in   Mostly Cloudy
10:51 AM 75.9 °F - 62.1 °F 62% 29.91 in 10.0 mi South 18.4 mph 28.8 mph N/A   Partly Cloudy
11:51 AM 77.0 °F - 60.1 °F 56% 29.91 in 10.0 mi South 17.3 mph 24.2 mph N/A   Mostly Cloudy
12:51 PM 79.0 °F - 61.0 °F 54% 29.88 in 10.0 mi South 13.8 mph - N/A   Mostly Cloudy
1:51 PM 81.0 °F 81.9 °F 62.1 °F 52% 29.83 in 10.0 mi SE 12.7 mph 19.6 mph N/A   Mostly Cloudy
2:51 PM 82.0 °F 83.0 °F 62.1 °F 51% 29.81 in 10.0 mi SE 15.0 mph - N/A   Scattered Clouds
3:51 PM 79.0 °F - 62.1 °F 56% 29.81 in 10.0 mi SE 21.9 mph 26.5 mph N/A   Scattered Clouds
4:51 PM 78.1 °F - 63.0 °F 60% 29.80 in 10.0 mi SSE 20.7 mph 27.6 mph N/A   Partly Cloudy
5:51 PM 73.9 °F - 62.1 °F 66% 29.80 in 10.0 mi SSE 20.7 mph - N/A   Partly Cloudy
6:51 PM 71.1 °F - 63.0 °F 75% 29.82 in 10.0 mi SSE 15.0 mph - N/A   Partly Cloudy
7:51 PM 70.0 °F - 63.0 °F 78% 29.85 in 10.0 mi SSE 15.0 mph - N/A   Clear
8:51 PM 70.0 °F - 62.1 °F 76% 29.86 in 10.0 mi SSE 15.0 mph - N/A   Clear
9:51 PM 69.1 °F - 63.0 °F 81% 29.86 in 10.0 mi SSE 13.8 mph - N/A   Clear
10:51 PM 66.2 °F - 62.6 °F 88% 29.88 in 10.0 mi SSE 8.1 mph - N/A   Clear
11:51 PM 66.9 °F - 63.0 °F 87% 29.88 in 10.0 mi South 10.4 mph - N/A   Clear